CDT,Max TemperatureF,Mean TemperatureF,Min TemperatureF,Max Dew PointF,MeanDew PointF,Min DewpointF,Max Humidity, Mean Humidity, Min Humidity, Max Sea Level PressureIn, Mean Sea Level PressureIn, Min Sea Level PressureIn, Max VisibilityMiles, Mean VisibilityMiles, Min VisibilityMiles, Max Wind SpeedMPH, Mean Wind SpeedMPH, Max Gust SpeedMPH,PrecipitationIn, CloudCover, Events, WindDirDegrees
2013-4-1,82,72,63,66,63,60,90,76,56,30.04,29.99,29.93,10,9,7,24,9,31,0.00,2,,80
2013-4-2,82,74,68,70,67,64,90,82,67,30.00,29.92,29.81,10,8,2,21,10,25,0.11,7,Rain-Thunderstorm,93
2013-4-3,73,65,57,63,58,51,90,80,65,30.10,29.94,29.75,10,9,2,29,15,38,0.25,7,Rain-Thunderstorm,356
2013-4-4,64,57,50,52,47,43,88,73,46,30.20,30.12,30.06,10,10,5,21,14,26,0.00,6,,340
2013-4-5,70,56,43,52,46,40,89,69,45,30.28,30.19,30.11,10,10,7,13,7,,0.00,0,,95
2013-4-6,75,66,57,61,57,52,83,67,53,30.12,30.02,29.95,10,10,10,22,12,28,0.00,4,,155
2013-4-7,79,72,66,66,62,60,87,71,52,29.98,29.91,29.86,10,10,10,23,13,28,0.00,4,,149
2013-4-8,82,75,69,68,67,66,90,79,60,29.85,29.80,29.75,10,8,6,26,15,33,0.00,5,,137
2013-4-9,82,76,71,71,69,66,88,78,67,29.77,29.73,29.66,10,8,5,28,20,37,0.00,5,,136
2013-4-10,79,66,52,72,63,47,94,85,76,29.85,29.74,29.67,10,6,2,28,18,36,0.02,8,Rain,100
2013-4-11,73,59,46,50,44,41,87,73,33,29.94,29.87,29.80,10,8,1,29,19,36,1.18,5,Rain-Thunderstorm,359
2013-4-12,80,64,50,56,51,45,86,64,32,30.01,29.94,29.88,10,10,10,17,6,22,0.00,0,,98
2013-4-13,78,66,55,61,57,52,90,72,50,29.96,29.88,29.80,10,10,10,18,9,25,0.00,3,,92
2013-4-14,80,68,57,68,62,55,100,84,61,29.81,29.74,29.69,10,6,0,18,7,22,0.00,2,Fog,127
2013-4-15,82,76,71,72,69,68,94,83,65,29.85,29.79,29.73,8,6,4,16,11,,0.00,6,,152
2013-4-16,82,75,69,72,69,66,91,82,65,29.93,29.86,29.82,7,5,2,20,12,26,0.00,6,,121
2013-4-17,80,78,75,72,71,71,89,83,76,29.91,29.83,29.72,8,6,5,26,17,33,0.00,8,,134
2013-4-18,79,68,57,73,62,44,94,81,62,30.03,29.78,29.69,10,6,0,33,18,41,0.43,7,Fog-Rain,66
2013-4-19,72,61,51,42,34,28,61,42,21,30.28,30.19,30.05,10,10,10,26,18,34,0.00,0,,6
2013-4-20,72,57,43,50,42,33,72,53,36,30.23,30.17,30.08,10,10,10,17,8,23,0.00,1,,93
2013-4-21,77,66,54,59,55,48,87,70,52,30.14,30.09,30.05,10,10,10,20,9,25,0.00,2,,85
2013-4-22,81,68,55,64,60,53,90,75,52,30.11,30.03,29.96,10,9,6,16,7,21,0.00,1,,118
2013-4-23,82,75,69,70,67,64,87,76,61,29.98,29.92,29.88,10,10,10,23,13,28,0.00,4,,136
2013-4-24,75,62,50,70,50,42,88,75,59,30.20,30.11,29.99,10,10,7,31,16,38,0.05,8,Rain,12
2013-4-25,70,64,61,64,54,49,84,70,54,30.29,30.21,30.17,10,10,8,17,10,,0.00,8,,52
2013-4-26,81,74,69,70,68,64,91,81,69,30.19,30.12,30.08,10,9,5,21,14,29,0.00,6,,128
2013-4-27,82,76,71,70,69,68,94,82,62,30.10,30.03,29.96,10,8,5,20,10,26,0.00,6,,134
2013-4-28,78,72,66,70,65,60,90,80,62,30.07,29.98,29.89,10,8,2,24,11,29,0.92,5,Rain-Thunderstorm,80
2013-4-29,82,74,66,72,68,64,94,86,58,29.93,29.88,29.83,10,7,2,17,7,21,0.31,6,Rain-Thunderstorm,103
2013-4-30,79,72,66,70,67,64,100,86,62,29.83,29.79,29.75,10,9,5,16,8,21,0.07,3,Rain-Thunderstorm,134